Orbital Elements at Epoch 2455672.5 (2011-Apr-21.0) TDB
Reference: JPL 29 (heliocentric ecliptic J2000)
Element | Value | Uncertainty (1-sigma) | Units |
e | .6824401124131176 | 7.6165e-08 | |
a | 3.102912310104745 | 2.6093e-08 | au |
q | .9853604843888162 | 2.3369e-07 | au |
i | 4.893571727959618 | 1.5806e-05 | deg |
node | 295.9559252386137 | 0.00022821 | deg |
peri | .665388450046148 | 0.00022426 | deg |
M | 76.44253318771239 | 4.8983e-06 | deg |
tp | 2455248.578688468470 (2010-Feb-21.07868847) | 3.0106e-05 | TDB |
period | 1996.423532650303 5.47 | 2.5183e-05 6.895e-08 | d yr |
n | .1803224586929662 | 2.2746e-09 | deg/d |
Q | 5.220464135820674 | 4.39e-08 | au |
|
| | Orbit Determination Parameters
Additional Information
|